TimeCDT,TemperatureF,Dew PointF,Humidity,Sea Level PressureIn,VisibilityMPH,Wind Direction,Wind SpeedMPH,Gust SpeedMPH,PrecipitationIn,Events,Conditions,WindDirDegrees,DateUTC
12:53 AM,60.1,55.9,86,29.97,10.0,Calm,Calm,-,N/A,,Mostly Cloudy,0,2013-10-19 05:53:00
1:53 AM,57.0,53.1,87,29.98,10.0,Calm,Calm,-,N/A,,Mostly Cloudy,0,2013-10-19 06:53:00
2:53 AM,55.0,52.0,89,29.97,10.0,Calm,Calm,-,N/A,,Clear,0,2013-10-19 07:53:00
3:53 AM,57.0,54.0,89,29.97,10.0,Calm,Calm,-,N/A,,Mostly Cloudy,0,2013-10-19 08:53:00
4:53 AM,57.9,54.0,87,29.98,10.0,West,3.5,-,N/A,,Clear,260,2013-10-19 09:53:00
5:53 AM,57.9,54.0,87,29.99,10.0,Calm,Calm,-,N/A,,Mostly Cloudy,0,2013-10-19 10:53:00
6:53 AM,57.9,55.0,90,29.99,10.0,WNW,5.8,-,N/A,,Overcast,290,2013-10-19 11:53:00
7:53 AM,59.0,55.0,87,30.02,10.0,WNW,8.1,-,N/A,,Overcast,290,2013-10-19 12:53:00
8:53 AM,60.1,55.0,83,30.04,10.0,North,11.5,-,N/A,,Mostly Cloudy,350,2013-10-19 13:53:00
9:53 AM,61.0,54.0,78,30.06,10.0,North,13.8,-,N/A,,Overcast,360,2013-10-19 14:53:00
10:53 AM,60.1,53.1,78,30.08,10.0,North,15.0,-,N/A,,Overcast,10,2013-10-19 15:53:00
11:53 AM,57.9,52.0,81,30.09,10.0,North,15.0,-,N/A,,Overcast,10,2013-10-19 16:53:00
12:01 PM,57.2,51.8,82,30.07,10.0,North,15.0,-,N/A,,Overcast,360,2013-10-19 17:01:00
12:41 PM,59.0,51.8,77,30.07,10.0,North,12.7,-,N/A,,Overcast,10,2013-10-19 17:41:00
12:53 PM,59.0,50.0,72,30.09,10.0,North,12.7,-,N/A,,Overcast,350,2013-10-19 17:53:00
1:53 PM,59.0,48.9,69,30.08,10.0,NNW,10.4,-,N/A,,Overcast,340,2013-10-19 18:53:00
2:53 PM,59.0,48.0,67,30.09,10.0,NW,11.5,-,N/A,,Overcast,320,2013-10-19 19:53:00
3:32 PM,62.6,46.4,55,30.06,10.0,NNE,8.1,-,N/A,,Scattered Clouds,20,2013-10-19 20:32:00
3:53 PM,62.1,46.9,58,30.08,10.0,NE,8.1,-,N/A,,Partly Cloudy,40,2013-10-19 20:53:00
4:53 PM,63.0,46.9,56,30.08,10.0,North,8.1,-,N/A,,Clear,360,2013-10-19 21:53:00
5:53 PM,59.0,46.0,62,30.08,10.0,NNW,8.1,-,N/A,,Clear,340,2013-10-19 22:53:00
6:53 PM,54.0,45.0,72,30.08,10.0,NNW,4.6,-,N/A,,Clear,330,2013-10-19 23:53:00
7:53 PM,50.0,45.0,83,30.10,10.0,Calm,Calm,-,N/A,,Clear,0,2013-10-20 00:53:00
8:53 PM,48.9,44.1,83,30.11,10.0,Calm,Calm,-,N/A,,Clear,0,2013-10-20 01:53:00
9:53 PM,46.9,44.1,90,30.11,10.0,NNE,3.5,-,N/A,,Clear,20,2013-10-20 02:53:00
10:53 PM,46.0,43.0,89,30.11,10.0,SE,3.5,-,N/A,,Clear,130,2013-10-20 03:53:00
11:53 PM,46.9,43.0,86,30.11,10.0,Calm,Calm,-,N/A,,Clear,0,2013-10-20 04:53:00